Amsterdam, Netherlands

10:19 AM CET on February 22, 2017 (GMT +0100)
Schiphol

Weather History for EHAM - February, 2013

Change the Weather History Date:

Sunday, February 17, 2013

  Actual Average Record
Temperature  
Mean Temperature 39 °F -  
Max Temperature 45 °F 46 °F 51 °F (2007)
Min Temperature 33 °F 35 °F 23 °F (2008)
Degree Days  
Heating Degree Days 26    
Moisture  
Dew Point 34 °F    
Average Humidity 85    
Maximum Humidity 100    
Minimum Humidity 66    
Precipitation  
Precipitation 0.00 in - - ()
Sea Level Pressure  
Sea Level Pressure 30.24 in    
Wind  
Wind Speed 6 mph ()    
Max Wind Speed 9 mph    
Max Gust Speed -    
Visibility 5.2 miles    
Events      
Averages and records for this station are not official NWS values.
T = Trace of Precipitation, MM = Missing Value Source: Averaged Metar Reports

Daily Weather History Graph

Daily Weather History Graph

Search for Another Location

Airport or City:

Trip Planner

Search our weather history database for the weather conditions in past years. The results will help you decide how hot, cold, wet, or windy it might be!

Date:

Astronomy

Feb. 17, 2013 Rise Set
Actual Time 7:52 AM CET 5:58 PM CET
Civil Twilight 7:17 AM CET 6:33 PM CET
Nautical Twilight 6:37 AM CET 7:12 PM CET
Astronomical Twilight 5:58 AM CET 7:52 PM CET
Moon 10:35 AM CET (2/17) 1:37 AM CET (2/17)
Length of Visible Light 11h 15m
Length of Day
10h 05m
Waxing Crescent, 46% of the Moon is Illuminated
Feb 17
Waxing Crescent
Feb 17
First Quarter
Feb 25
Full
Mar 4
Last Quarter
Mar 11
New

Hourly Weather History & Observations

Time (CET) Temp. Windchill Dew Point Humidity Pressure Visibility Wind Dir Wind Speed Gust Speed Precip Events Conditions
12:25 AM 39.2 °F - 39.2 °F 100% 30.27 in 2.5 mi Variable 2.3 mph - N/A   Scattered Clouds
12:55 AM 39.2 °F 37.0 °F 39.2 °F 100% 30.27 in - ENE 3.5 mph - N/A   Mostly Cloudy
1:00 AM 39 °F - 38 °F 97% 30.28 in 2 mi East 4.5 mph - -   Mist
1:25 AM 39.2 °F 35.0 °F 39.2 °F 100% 30.27 in 2.2 mi East 5.8 mph - N/A   Mostly Cloudy
1:55 AM 39.2 °F 35.0 °F 39.2 °F 100% 30.27 in - East 5.8 mph - N/A   Mostly Cloudy
2:25 AM 39.2 °F 35.0 °F 39.2 °F 100% 30.24 in 2.2 mi ESE 5.8 mph - N/A   Mostly Cloudy
2:55 AM 39.2 °F 35.9 °F 37.4 °F 93% 30.24 in 2.5 mi East 4.6 mph - N/A   Scattered Clouds
3:25 AM 39.2 °F 35.0 °F 37.4 °F 93% 30.24 in 3.7 mi East 5.8 mph - N/A   Partly Cloudy
3:55 AM 39.2 °F 34.2 °F 35.6 °F 87% 30.24 in 3.7 mi ESE 6.9 mph - N/A   Partly Cloudy
4:00 AM 38 °F - 36 °F 90% 30.26 in 4 mi ESE 8.9 mph - -   Mist
4:25 AM 37.4 °F 32.8 °F 35.6 °F 93% 30.24 in 3.7 mi ESE 5.8 mph - N/A   Unknown
4:55 AM 37.4 °F 32.1 °F 35.6 °F 93% 30.24 in 3.7 mi ESE 6.9 mph - N/A   Unknown
5:25 AM 37.4 °F 31.4 °F 35.6 °F 93% 30.24 in 3.7 mi ESE 8.1 mph - N/A   Unknown
5:55 AM 37.4 °F 32.8 °F 35.6 °F 93% 30.24 in 3.7 mi East 5.8 mph - N/A   Unknown
6:25 AM 37.4 °F 32.8 °F 33.8 °F 87% 30.24 in 3.7 mi ESE 5.8 mph - N/A   Unknown
6:55 AM 37.4 °F 32.8 °F 33.8 °F 87% 30.24 in 5.0 mi ESE 5.8 mph - N/A   Unknown
7:00 AM 37 °F - 35 °F 87% 30.27 in 4 mi ESE 4.5 mph - -   Mist
7:25 AM 37.4 °F 32.8 °F 33.8 °F 87% 30.24 in 4.3 mi East 5.8 mph - N/A   Unknown
7:55 AM 37.4 °F 32.1 °F 33.8 °F 87% 30.24 in 5.0 mi ESE 6.9 mph - N/A   Mostly Cloudy
8:25 AM 37.4 °F 32.1 °F 33.8 °F 87% 30.27 in 5.0 mi East 6.9 mph - N/A   Mostly Cloudy
8:55 AM 35.6 °F 30.7 °F 33.8 °F 93% 30.27 in 5.6 mi East 5.8 mph - N/A   Scattered Clouds
9:25 AM 37.4 °F 31.4 °F 33.8 °F 87% 30.27 in 5.6 mi ESE 8.1 mph - N/A   Unknown
9:55 AM 39.2 °F 34.2 °F 33.8 °F 81% 30.27 in 5.6 mi ESE 6.9 mph - N/A   Partly Cloudy
10:00 AM 38 °F - 34 °F 79% 30.27 in 6 mi ESE 6.7 mph - -   Mist
10:25 AM 39.2 °F 33.6 °F 33.8 °F 81% 30.27 in 5.6 mi SE 8.1 mph - N/A   Partly Cloudy
10:55 AM 39.2 °F 33.6 °F 33.8 °F 81% 30.27 in 6.2 mi ESE 8.1 mph - N/A   Partly Cloudy
11:25 AM 41.0 °F 36.4 °F 35.6 °F 81% 30.27 in 6.2 mi ESE 6.9 mph - N/A   Partly Cloudy
11:55 AM 41.0 °F 35.8 °F 33.8 °F 76% 30.27 in 6.2 mi ESE 8.1 mph - N/A   Scattered Clouds
12:25 PM 41.0 °F 36.4 °F 35.6 °F 81% 30.24 in 6.2 mi SE 6.9 mph - N/A   Partly Cloudy
1:00 PM 42 °F - 35 °F 66% 30.27 in 7 mi ESE 6.7 mph - -   Partly Cloudy
1:25 PM 42.8 °F 38.6 °F 33.8 °F 70% 30.24 in 6.2 mi SE 6.9 mph - N/A   Partly Cloudy
1:55 PM 44.6 °F 42.2 °F 35.6 °F 71% 30.24 in 6.2 mi SSE 4.6 mph - N/A   Partly Cloudy
2:25 PM 44.6 °F 42.2 °F 35.6 °F 71% 30.21 in 6.2 mi SSE 4.6 mph - N/A   Partly Cloudy
2:55 PM 44.6 °F 42.2 °F 35.6 °F 71% 30.21 in 6.2 mi ENE 4.6 mph - N/A   Scattered Clouds
3:25 PM 42.8 °F 38.0 °F 33.8 °F 70% 30.21 in 6.2 mi ENE 8.1 mph - N/A   Mostly Cloudy
3:55 PM 42.8 °F 38.0 °F 33.8 °F 70% 30.21 in 6.2 mi ENE 8.1 mph - N/A   Mostly Cloudy
4:00 PM 42 °F - 34 °F 66% 30.23 in 9 mi ENE 8.9 mph - -   Overcast
4:25 PM 41.0 °F 35.8 °F 35.6 °F 81% 30.21 in 6.2 mi ENE 8.1 mph - N/A   Mostly Cloudy
4:55 PM 39.2 °F 33.0 °F 33.8 °F 81% 30.21 in 6.2 mi NE 9.2 mph - N/A   Partly Cloudy
5:25 PM 37.4 °F 30.8 °F 33.8 °F 87% 30.21 in 6.2 mi NE 9.2 mph - N/A   Partly Cloudy
5:55 PM 37.4 °F 30.8 °F 33.8 °F 87% 30.21 in 6.2 mi ENE 9.2 mph - N/A   Partly Cloudy
6:25 PM 35.6 °F 29.2 °F 32.0 °F 87% 30.21 in 6.2 mi ENE 8.1 mph - N/A   Partly Cloudy
6:55 PM 35.6 °F 29.2 °F 30.2 °F 81% 30.21 in 6.2 mi ENE 8.1 mph - N/A   Partly Cloudy
7:00 PM 35 °F - 31 °F 78% 30.24 in 7 mi ENE 8.9 mph - -   Partly Cloudy
7:25 PM 35.6 °F 28.6 °F 30.2 °F 81% 30.21 in 6.2 mi ENE 9.2 mph - N/A   Partly Cloudy
7:55 PM 33.8 °F 28.6 °F 30.2 °F 87% 30.21 in 6.2 mi ENE 5.8 mph - N/A   Partly Cloudy
8:25 PM 33.8 °F 27.7 °F 30.2 °F 87% 30.21 in 6.2 mi NE 6.9 mph - N/A   Scattered Clouds
8:55 PM 35.6 °F 29.2 °F 32.0 °F 87% 30.21 in 6.2 mi ENE 8.1 mph - N/A   Mostly Cloudy
9:25 PM 35.6 °F 30.7 °F 32.0 °F 87% 30.21 in 6.2 mi ENE 5.8 mph - N/A   Mostly Cloudy
9:55 PM 35.6 °F 30.7 °F 32.0 °F 87% 30.21 in 5.6 mi ENE 5.8 mph - N/A   Mostly Cloudy
10:00 PM 35 °F - 33 °F 89% 30.22 in 4 mi ENE 6.7 mph - -   Mist
10:25 PM 35.6 °F 30.7 °F 33.8 °F 93% 30.21 in 5.6 mi ENE 5.8 mph - N/A   Mostly Cloudy
10:55 PM 35.6 °F 31.7 °F 32.0 °F 87% 30.21 in 5.0 mi NE 4.6 mph - N/A   Mostly Cloudy
11:25 PM 33.8 °F 30.8 °F 32.0 °F 93% 30.21 in 4.3 mi East 3.5 mph - N/A   Scattered Clouds
11:55 PM 33.8 °F 30.8 °F 32.0 °F 93% 30.21 in 3.1 mi ENE 3.5 mph - N/A   Partly Cloudy